[[{"header":{"parameterUnit":"m.s-1","parameterCategory":1,"la1":30.2992,"la2":30.254,"lo1":-89.0895,"lo2":-89.0443,"dy":0.0025,"dx":0.0025,"nx":19,"ny":19,"refTime":"2026-03-19T09:00:00:Z","depth":0,"parameterNumber":2,"parameterNumberName":"U-component_of_WINDS"},"data":[0,0,0,3.197,3.1973,3.2107,3.2108,3.2293,3.2295,0,0,0,0,0,0,0,0,0,0,0,3.1941,3.1943,3.197,3.1973,3.2107,3.2108,3.2293,3.2295,0,0,0,0,0,0,0,0,0,0,0,3.1941,3.1943,3.1945,3.1974,3.2107,3.2108,3.2292,3.2186,0,0,0,0,0,0,0,0,0,0,3.2053,3.2038,3.1942,3.1945,3.1975,3.2107,3.2108,3.218,3.2192,3.2239,0,3.2286,0,3.2293,3.2308,3.2309,0,0,0,3.1965,3.2029,3.2054,3.1945,3.1976,3.2107,3.2044,3.2187,3.2201,3.2255,3.2288,3.2295,3.2296,3.231,3.2311,3.261,3.2611,0,0,3.1958,3.1972,3.2045,3.2064,3.2046,3.204,3.2049,3.2195,3.2231,3.2289,3.2299,3.23,3.2311,3.2313,3.2608,3.261,0,0,0,3.1942,3.1967,3.1989,3.2057,3.208,3.2044,3.2054,3.2225,3.2231,3.2301,3.2302,3.2312,3.2315,3.2606,3.2609,3.2709,0,0,0,3.1937,3.1958,3.1986,3.1996,3.2077,3.2155,3.2081,3.2221,3.2237,3.2301,3.2312,3.2317,3.2604,3.2607,3.2702,3.2753,0,0,0,3.1929,3.1956,3.198,3.1996,3.2054,3.2152,3.2166,3.2224,3.2238,3.2309,3.2317,3.2603,3.2607,3.2696,3.2743,3.2833,0,0,0,3.1924,3.207,3.1982,3.2144,3.2054,3.2214,3.2165,3.2284,3.2357,3.2313,3.2604,3.2608,3.2694,3.2737,3.2826,3.2909,3.2946,0,0,3.2115,3.2093,3.2187,3.2112,3.2291,3.2192,3.2385,3.244,3.2434,3.2551,3.2558,3.2704,3.2743,3.2832,3.3151,3.318,0,0,0,3.2252,3.232,3.2364,3.2434,3.2479,3.2519,3.2542,3.2561,3.2659,3.2498,3.2762,3.2784,3.2836,3.2874,3.2899,3.2941,3.2628,3.2627,3.2627,3.2544,3.2526,3.2679,3.2677,3.2745,3.2765,3.2817,3.2846,3.2812,3.2873,3.2908,3.3104,3.315,3.3168,3.3212,3.2952,3.2953,3.2953,3.2953,3.2819,3.291,3.2856,3.2985,3.2965,3.3072,3.3095,3.3065,3.316,3.3078,3.3122,3.3032,3.3201,3.3238,3.2961,3.2959,3.2958,3.2958,3.2957,3.3006,3.3046,3.3066,3.3161,3.3236,3.3228,3.332,3.33,3.3281,3.3325,3.3355,3.3354,3.3346,3.3341,3.3342,3.3343,3.3343,3.3344,3.3344,3.3191,3.321,3.3291,3.3346,3.3385,3.3433,3.3451,3.3488,3.3524,3.3501,3.3501,3.3457,3.3222,3.3161,3.3355,3.3353,3.3351,3.335,3.335,3.3474,3.3405,3.353,3.3569,3.3628,3.3701,3.3672,3.3748,3.3776,3.3821,3.3766,3.3597,3.3573,3.3553,3.3502,3.3772,3.3772,3.3772,3.3772,3.3629,3.3614,3.3733,3.3796,3.3854,3.3839,3.3975,3.3989,3.3992,3.4006,3.3965,3.3897,3.3877,3.3864,3.3838,3.379,3.4127,3.4127,3.4128,3.38,3.3789,3.391,3.3911,3.3955,3.3992,3.4118,3.4189,3.4179,3.4141,3.4016,3.4002,3.3891,3.3857,3.3817,3.3777,3.3689,0,0]},{"header":{"parameterUnit":"m.s-1","parameterCategory":1,"la1":30.2992,"la2":30.254,"lo1":-89.0895,"lo2":-89.0443,"dy":0.0025,"dx":0.0025,"nx":19,"ny":19,"refTime":"2026-03-19T09:00:00:Z","depth":0,"parameterNumber":3,"parameterNumberName":"V-component_of_WINDS"},"data":[0,0,0,1.1222,1.1224,1.1312,1.1312,1.1421,1.1422,0,0,0,0,0,0,0,0,0,0,0,1.1196,1.1197,1.1222,1.1224,1.1312,1.1312,1.1421,1.1422,0,0,0,0,0,0,0,0,0,0,0,1.1196,1.1197,1.1198,1.1225,1.1312,1.1312,1.1421,1.1355,0,0,0,0,0,0,0,0,0,0,1.127,1.1247,1.1196,1.1198,1.1225,1.1312,1.1312,1.1352,1.1359,1.138,0,1.14,0,1.1413,1.1429,1.1429,0,0,0,1.1224,1.1241,1.1265,1.1198,1.1226,1.1312,1.1272,1.1356,1.1364,1.139,1.1402,1.1406,1.1415,1.143,1.143,1.1553,1.1553,0,0,1.1219,1.1212,1.1259,1.127,1.1258,1.127,1.1275,1.1361,1.1374,1.1402,1.1409,1.1416,1.1431,1.1431,1.1552,1.1553,0,0,0,1.1205,1.1208,1.123,1.1265,1.1281,1.1272,1.1279,1.137,1.1377,1.141,1.1418,1.1431,1.1432,1.1552,1.1552,1.1573,0,0,0,1.1203,1.12,1.1228,1.1224,1.128,1.1327,1.1285,1.1371,1.1381,1.1417,1.1431,1.1434,1.1551,1.1552,1.1571,1.1584,0,0,0,1.119,1.1199,1.1212,1.1224,1.1261,1.1326,1.1339,1.1374,1.1386,1.143,1.1434,1.1551,1.1552,1.1569,1.1581,1.1612,0,0,0,1.1175,1.123,1.1212,1.1276,1.126,1.1338,1.1338,1.1397,1.1436,1.1432,1.1551,1.1552,1.1569,1.1579,1.161,1.1637,1.1647,0,0,1.124,1.1238,1.1276,1.1262,1.1341,1.1326,1.1407,1.1451,1.1462,1.1521,1.1524,1.1571,1.1581,1.1612,1.171,1.1718,0,0,0,1.1293,1.132,1.1343,1.138,1.1414,1.1443,1.1475,1.149,1.1541,1.1491,1.1592,1.1598,1.1616,1.1629,1.1636,1.1651,1.1558,1.1558,1.1558,1.1375,1.1385,1.1447,1.1467,1.1502,1.1532,1.1561,1.1587,1.1588,1.1611,1.1629,1.1687,1.1702,1.1707,1.1723,1.1644,1.1644,1.1644,1.1644,1.147,1.1509,1.1505,1.1565,1.1574,1.1623,1.1653,1.1651,1.1696,1.1676,1.1692,1.1668,1.1716,1.173,1.1646,1.1646,1.1645,1.1645,1.1645,1.1524,1.1544,1.1561,1.1613,1.1651,1.1668,1.1711,1.1719,1.1725,1.1742,1.1759,1.1759,1.1758,1.175,1.175,1.175,1.175,1.175,1.1751,1.1573,1.1592,1.1628,1.1665,1.1688,1.1719,1.1746,1.1768,1.1794,1.1796,1.1796,1.1792,1.172,1.17,1.1754,1.1753,1.1753,1.1752,1.1752,1.1664,1.1644,1.17,1.1722,1.1765,1.1801,1.1808,1.1851,1.187,1.189,1.1882,1.1828,1.1826,1.182,1.1804,1.1882,1.1882,1.1882,1.1882,1.1709,1.1708,1.1765,1.18,1.1834,1.1845,1.1904,1.1925,1.1943,1.1954,1.1944,1.1924,1.1918,1.1919,1.1911,1.1897,1.1996,1.1996,1.1996,1.1765,1.1767,1.1818,1.1835,1.1868,1.1895,1.195,1.1987,1.2004,1.2,1.1963,1.1958,1.1925,1.1915,1.1911,1.1899,1.1872,0,0]}]]